• In Germany
  • List of Countries
  • For 7 days
  • Water Temperature
  • Satellite Maps
  • Weather Map
  • Weather Widgets
  • user-avatar
    Login

    Hourly Weather Wien

    Today, 18 August, Friday

    Time Temperature Precipitation Wind Pressure Humidity
    00:00 +22°C° 0 mm 1 mps 745 mmHg 60%
    01:00 +22°C° 0 mm 1 mps 745 mmHg 62%
    02:00 +22°C° 0 mm 1 mps 745 mmHg 64%
    03:00 +21°C° 0 mm 1 mps 745 mmHg 65%
    04:00 +21°C° 0 mm 1 mps 745 mmHg 67%
    05:00 +20°C° 0 mm 0 mps 745 mmHg 64%
    06:00 +21°C° 0 mm 0 mps 745 mmHg 62%
    07:00 +22°C° 0 mm 0 mps 745 mmHg 59%
    08:00 +26°C° 0 mm 1 mps 745 mmHg 54%
    09:00 +28°C° 0 mm 1 mps 745 mmHg 48%
    10:00 +30°C° 0 mm 1 mps 745 mmHg 42%
    11:00 +32°C° 0 mm 2 mps 745 mmHg 39%
    12:00 +34°C° 0 mm 2 mps 744 mmHg 35%
    13:00 +35°C° 0 mm 3 mps 744 mmHg 32%
    14:00 +35°C° 0 mm 3 mps 743 mmHg 31%
    15:00 +36°C° 0 mm 3 mps 743 mmHg 30%
    16:00 +36°C° 0 mm 4 mps 742 mmHg 29%
    17:00 +34°C° 0 mm 3 mps 742 mmHg 34%
    18:00 +31°C° 0 mm 3 mps 742 mmHg 39%
    19:00 +29°C° 0 mm 2 mps 741 mmHg 44%
    20:00 +28°C° 0 mm 2 mps 741 mmHg 46%
    21:00 +27°C° 0 mm 2 mps 742 mmHg 47%
    22:00 +26°C° 0 mm 2 mps 742 mmHg 49%
    23:00 +25°C° 0 mm 2 mps 742 mmHg 50%

    Tomorrow, 19 August, Saturday

    Time Temperature Precipitation Wind Pressure Humidity
    00:00 +24°C° 0 mm 3 mps 742 mmHg 52%
    01:00 +24°C° 0 mm 3 mps 742 mmHg 53%
    02:00 +22°C° 0 mm 3 mps 742 mmHg 61%
    03:00 +22°C° 0 mm 4 mps 742 mmHg 68%
    04:00 +21°C° 0 mm 4 mps 742 mmHg 75%
    05:00 +22°C° 0 mm 4 mps 743 mmHg 74%
    06:00 +22°C° 0 mm 5 mps 743 mmHg 73%
    07:00 +22°C° 0 mm 5 mps 744 mmHg 71%
    08:00 +22°C° 0.9 mm 5 mps 744 mmHg 74%
    09:00 +21°C° 0.9 mm 5 mps 745 mmHg 76%
    10:00 +20°C° 0.9 mm 5 mps 745 mmHg 78%
    11:00 +20°C° 0.5 mm 5 mps 745 mmHg 78%
    12:00 +20°C° 0.5 mm 4 mps 745 mmHg 78%
    13:00 +19°C° 0.5 mm 4 mps 746 mmHg 78%
    14:00 +20°C° 0 mm 4 mps 746 mmHg 77%
    15:00 +20°C° 0 mm 4 mps 746 mmHg 75%
    16:00 +20°C° 0 mm 4 mps 746 mmHg 74%
    17:00 +20°C° 0 mm 4 mps 746 mmHg 75%
    18:00 +19°C° 0 mm 3 mps 746 mmHg 76%
    19:00 +19°C° 0 mm 3 mps 746 mmHg 77%
    20:00 +19°C° 0 mm 3 mps 746 mmHg 78%
    21:00 +18°C° 0 mm 3 mps 746 mmHg 79%
    22:00 +18°C° 0 mm 3 mps 747 mmHg 79%
    23:00 +18°C° 0 mm 3 mps 747 mmHg 80%

    Day after tomorrow, 20 August, Sunday

    Time Temperature Precipitation Wind Pressure Humidity
    00:00 +17°C° 0 mm 3 mps 747 mmHg 80%
    01:00 +17°C° 0 mm 3 mps 747 mmHg 81%
    02:00 +17°C° 0 mm 3 mps 747 mmHg 80%
    03:00 +16°C° 0 mm 3 mps 747 mmHg 79%
    04:00 +16°C° 0 mm 3 mps 747 mmHg 77%
    05:00 +15°C° 0 mm 4 mps 747 mmHg 73%
    06:00 +17°C° 0 mm 4 mps 747 mmHg 69%
    07:00 +16°C° 0 mm 5 mps 747 mmHg 64%
    08:00 +19°C° 0 mm 5 mps 747 mmHg 57%
    09:00 +21°C° 0 mm 5 mps 748 mmHg 51%
    10:00 +22°C° 0 mm 5 mps 748 mmHg 44%
    11:00 +23°C° 0 mm 5 mps 747 mmHg 42%
    12:00 +25°C° 0 mm 5 mps 747 mmHg 39%
    13:00 +25°C° 0 mm 5 mps 747 mmHg 37%
    14:00 +25°C° 0 mm 5 mps 747 mmHg 38%
    15:00 +25°C° 0 mm 5 mps 747 mmHg 39%
    16:00 +25°C° 0 mm 5 mps 747 mmHg 40%
    17:00 +22°C° 0 mm 4 mps 747 mmHg 45%
    18:00 +21°C° 0 mm 3 mps 747 mmHg 50%
    19:00 +19°C° 0 mm 3 mps 747 mmHg 55%
    20:00 +18°C° 0 mm 3 mps 747 mmHg 59%
    21:00 +17°C° 0 mm 3 mps 748 mmHg 63%
    22:00 +17°C° 0 mm 3 mps 748 mmHg 67%
    23:00 +16°C° 0 mm 3 mps 748 mmHg 68%

    21 August, Monday

    Time Temperature Precipitation Wind Pressure Humidity
    00:00 +16°C° 0 mm 3 mps 748 mmHg 69%
    01:00 +14°C° 0 mm 3 mps 748 mmHg 71%
    02:00 +14°C° 0 mm 3 mps 748 mmHg 72%
    03:00 +13°C° 0 mm 3 mps 748 mmHg 72%
    04:00 +13°C° 0 mm 3 mps 748 mmHg 73%
    05:00 +14°C° 0 mm 3 mps 748 mmHg 69%
    06:00 +15°C° 0 mm 4 mps 748 mmHg 66%
    07:00 +15°C° 0 mm 4 mps 748 mmHg 63%
    08:00 +18°C° 0 mm 4 mps 748 mmHg 57%
    09:00 +20°C° 0 mm 4 mps 748 mmHg 51%
    10:00 +21°C° 0 mm 5 mps 748 mmHg 46%
    11:00 +22°C° 0 mm 5 mps 748 mmHg 43%
    12:00 +23°C° 0 mm 5 mps 747 mmHg 41%
    13:00 +25°C° 0 mm 5 mps 747 mmHg 39%
    14:00 +25°C° 0 mm 5 mps 747 mmHg 38%
    15:00 +25°C° 0 mm 4 mps 747 mmHg 38%
    16:00 +25°C° 0 mm 4 mps 746 mmHg 38%
    17:00 +22°C° 0 mm 4 mps 746 mmHg 44%
    18:00 +20°C° 0 mm 3 mps 746 mmHg 49%
    19:00 +19°C° 0 mm 2 mps 746 mmHg 55%
    20:00 +18°C° 0 mm 2 mps 747 mmHg 59%
    21:00 +17°C° 0 mm 2 mps 747 mmHg 62%
    22:00 +16°C° 0 mm 2 mps 747 mmHg 66%
    23:00 +15°C° 0 mm 2 mps 747 mmHg 68%

    22 August, Tuesday

    Time Temperature Precipitation Wind Pressure Humidity
    00:00 +15°C° 0 mm 2 mps 747 mmHg 70%
    01:00 +14°C° 0 mm 1 mps 747 mmHg 73%
    02:00 +14°C° 0 mm 1 mps 747 mmHg 74%
    03:00 +14°C° 0 mm 1 mps 747 mmHg 76%
    04:00 +13°C° 0 mm 1 mps 747 mmHg 78%
    05:00 +15°C° 0 mm 1 mps 747 mmHg 73%
    06:00 +16°C° 0 mm 1 mps 747 mmHg 69%
    07:00 +18°C° 0 mm 1 mps 747 mmHg 64%
    08:00 +20°C° 0 mm 1 mps 747 mmHg 58%
    09:00 +23°C° 0 mm 1 mps 747 mmHg 51%
    10:00 +25°C° 0 mm 1 mps 747 mmHg 45%
    11:00 +26°C° 0 mm 1 mps 746 mmHg 42%
    12:00 +27°C° 0 mm 1 mps 746 mmHg 39%
    13:00 +28°C° 0 mm 1 mps 745 mmHg 37%
    14:00 +28°C° 0 mm 1 mps 745 mmHg 36%
    15:00 +28°C° 0 mm 1 mps 744 mmHg 36%
    16:00 +29°C° 0 mm 1 mps 744 mmHg 36%
    17:00 +27°C° 0 mm 1 mps 744 mmHg 41%
    18:00 +25°C° 0 mm 1 mps 744 mmHg 45%
    19:00 +23°C° 0 mm 2 mps 743 mmHg 50%
    20:00 +21°C° 0 mm 2 mps 743 mmHg 51%
    21:00 +20°C° 0 mm 2 mps 743 mmHg 52%
    22:00 +19°C° 0 mm 2 mps 744 mmHg 54%
    23:00 +19°C° 0 mm 2 mps 743 mmHg 55%

    23 August, Wednesday

    Time Temperature Precipitation Wind Pressure Humidity
    00:00 +18°C° 0 mm 2 mps 743 mmHg 56%
    01:00 +18°C° 0 mm 2 mps 743 mmHg 58%
    02:00 +17°C° 0 mm 2 mps 743 mmHg 60%
    03:00 +17°C° 0 mm 2 mps 743 mmHg 61%
    04:00 +16°C° 0 mm 2 mps 742 mmHg 63%
    05:00 +17°C° 0 mm 2 mps 743 mmHg 62%
    06:00 +18°C° 0 mm 2 mps 743 mmHg 60%
    07:00 +19°C° 0 mm 2 mps 743 mmHg 58%
    08:00 +23°C° 0 mm 2 mps 743 mmHg 53%
    09:00 +26°C° 0 mm 3 mps 743 mmHg 47%
    10:00 +28°C° 0 mm 3 mps 743 mmHg 41%
    11:00 +30°C° 0 mm 3 mps 743 mmHg 38%
    12:00 +31°C° 0 mm 3 mps 742 mmHg 35%
    13:00 +34°C° 0 mm 3 mps 742 mmHg 31%
    14:00 +34°C° 0 mm 3 mps 742 mmHg 32%
    15:00 +34°C° 0 mm 2 mps 742 mmHg 33%
    16:00 +34°C° 0 mm 2 mps 742 mmHg 34%
    17:00 +30°C° 0.1 mm 2 mps 742 mmHg 40%
    18:00 +28°C° 0.1 mm 1 mps 742 mmHg 45%
    19:00 +26°C° 0.1 mm 1 mps 742 mmHg 51%
    20:00 +25°C° 0.1 mm 1 mps 742 mmHg 55%
    21:00 +24°C° 0.1 mm 1 mps 742 mmHg 58%
    22:00 +23°C° 0.1 mm 1 mps 743 mmHg 62%
    23:00 +23°C° 0 mm 1 mps 743 mmHg 64%
    Show more